Temp
-16 -17 -17 -18 -18 -19 -19 -19 -19 -19 -20 -20 -20 -20 -20 -20 -21 -21 -21 -21 -22 -23 -23 -23 -23 -24 -24 -25 -25 -25 -26 -27 -28 -30 -31 -31 -31 -31 -31 -30 -30 -30 -31
-17 -18 -18 -18 -18 -18 -18 -19 -19 -20 -20 -20 -20 -20 -20 -21 -21 -21 -22 -23 -23 -23 -23 -24 -25 -25 -25 -25 -26 -27 -28 -30 -31 -30 -31 -31 -31 -31 -30 -30 -31 -31 -31
-17 -18 -18 -18 -19 -18 -19 -19 -20 -20 -20 -20 -20 -20 -21 -21 -21 -22 -22 -23 -23 -24 -25 -25 -25 -25 -26 -27 -28 -29 -30 -31 -31 -32 -31 -32 -31 -31 -31 -30 -31 -31 -32
-17 -17 -18 -18 -18 -19 -19 -19 -19 -20 -20 -20 -20 -21 -21 -21 -22 -22 -23 -23 -24 -25 -25 -25 -26 -26 -27 -28 -29 -31 -32 -32 -33 -32 -32 -32 -32 -31 -31 -31 -31 -32 -32
-18 -18 -18 -18 -19 -19 -19 -19 -20 -20 -20 -20 -21 -21 -22 -22 -22 -23 -24 -25 -25 -26 -26 -26 -27 -28 -29 -30 -31 -32 -32 -33 -33 -33 -33 -32 -32 -32 -31 -32 -31 -32 -33
-18 -18 -18 -19 -19 -19 -19 -20 -20 -20 -21 -21 -22 -22 -22 -23 -23 -24 -25 -26 -26 -26 -27 -28 -29 -30 -31 -31 -32 -33 -33 -33 -33 -33 -33 -32 -32 -32 -32 -32 -32 -33 -33
-18 -18 -19 -19 -20 -20 -20 -20 -20 -21 -22 -22 -23 -23 -23 -24 -24 -25 -26 -26 -27 -28 -28 -29 -30 -31 -32 -32 -33 -33 -34 -33 -33 -33 -33 -32 -33 -32 -32 -33 -33 -33 -33
-19 -20 -20 -20 -20 -20 -20 -20 -21 -22 -23 -23 -23 -24 -24 -25 -26 -26 -27 -28 -29 -29 -30 -31 -31 -31 -32 -33 -33 -34 -34 -34 -34 -33 -33 -33 -33 -33 -33 -33 -33 -33 -33
-19 -20 -20 -20 -20 -20 -21 -21 -23 -23 -23 -24 -25 -24 -26 -27 -26 -28 -29 -29 -30 -30 -31 -31 -31 -32 -33 -33 -34 -34 -34 -34 -34 -33 -33 -33 -33 -33 -33 -34 -34 -33 -33
-20 -20 -20 -20 -22 -21 -21 -23 -23 -23 -23 -25 -25 -26 -27 -27 -29 -30 -30 -30 -30 -31 -31 -32 -32 -33 -34 -34 -34 -34 -34 -34 -34 -34 -34 -34 -34 -34 -34 -34 -34 -34 -33
-20 -21 -21 -22 -21 -22 -23 -23 -23 -24 -25 -26 -26 -27 -28 -30 -30 -30 -30 -31 -31 -31 -32 -32 -32 -33 -34 -34 -34 -34 -34 -35 -35 -34 -34 -34 -34 -34 -34 -34 -34 -34 -34
-21 -21 -21 -21 -22 -23 -23 -24 -24 -25 -25 -27 -27 -28 -30 -30 -30 -30 -30 -31 -31 -32 -32 -33 -33 -34 -35 -35 -35 -35 -35 -35 -35 -35 -35 -35 -35 -35 -35 -35 -34 -34 -34
-21 -21 -22 -22 -23 -23 -24 -24 -24 -26 -28 -28 -29 -30 -30 -30 -30 -30 -31 -31 -32 -33 -33 -33 -34 -34 -35 -35 -35 -35 -35 -35 -36 -36 -36 -36 -35 -35 -35 -35 -35 -34 -34
-21 -22 -23 -23 -24 -24 -24 -24 -26 -27 -29 -29 -30 -30 -30 -30 -31 -31 -31 -31 -32 -33 -34 -34 -34 -35 -35 -35 -35 -35 -35 -36 -36 -36 -36 -36 -36 -35 -35 -35 -35 -35 -34
-22 -23 -23 -23 -24 -24 -25 -26 -27 -29 -30 -30 -30 -31 -31 -31 -31 -31 -31 -32 -32 -33 -34 -34 -34 -35 -35 -35 -35 -36 -36 -36 -36 -36 -36 -36 -36 -36 -35 -35 -35 -35 -35
-23 -23 -24 -24 -24 -25 -26 -27 -29 -30 -30 -31 -31 -31 -31 -31 -31 -31 -32 -32 -32 -33 -33 -34 -34 -35 -35 -36 -36 -36 -36 -36 -36 -36 -37 -37 -37 -36 -36 -36 -35 -35 -35
-24 -24 -24 -25 -26 -26 -27 -29 -30 -31 -31 -31 -31 -31 -31 -31 -31 -32 -32 -33 -33 -33 -34 -34 -35 -35 -36 -36 -36 -36 -36 -36 -36 -37 -37 -37 -37 -37 -37 -36 -36 -35 -35
-24 -24 -25 -26 -27 -28 -29 -30 -31 -31 -31 -31 -31 -31 -31 -32 -32 -32 -33 -33 -33 -34 -34 -34 -35 -35 -36 -36 -36 -36 -36 -36 -37 -37 -37 -37 -37 -37 -37 -37 -36 -36 -35
-25 -25 -26 -27 -28 -29 -30 -31 -31 -31 -31 -31 -31 -31 -32 -32 -32 -33 -33 -34 -34 -34 -34 -34 -35 -35 -36 -36 -36 -36 -36 -37 -37 -37 -37 -37 -37 -37 -37 -37 -37 -36 -36
-26 -27 -27 -29 -30 -31 -31 -31 -31 -31 -31 -31 -31 -31 -32 -32 -33 -33 -34 -34 -34 -34 -35 -35 -35 -35 -36 -36 -36 -36 -37 -37 -37 -37 -37 -37 -37 -37 -37 -37 -37 -37 -36
-27 -28 -29 -31 -31 -31 -31 -31 -31 -31 -31 -31 -31 -32 -32 -33 -33 -34 -35 -35 -35 -35 -35 -35 -35 -35 -36 -36 -37 -37 -37 -37 -37 -37 -37 -37 -38 -38 -38 -37 -37 -37 -37
-29 -31 -31 -31 -31 -31 -31 -31 -31 -31 -31 -32 -32 -32 -33 -34 -34 -35 -35 -35 -36 -36 -36 -36 -36 -36 -36 -37 -37 -37 -37 -37 -37 -37 -37 -37 -37 -38 -38 -38 -37 -37 -37
-32 -31 -31 -31 -31 -31 -31 -31 -32 -32 -32 -32 -33 -33 -33 -34 -35 -35 -35 -36 -36 -36 -37 -36 -36 -36 -37 -37 -37 -37 -37 -37 -37 -37 -37 -37 -37 -37 -38 -38 -38 -37 -37
-32 -32 -32 -32 -31 -31 -32 -32 -32 -32 -32 -33 -33 -33 -34 -34 -35 -35 -36 -36 -36 -37 -37 -37 -36 -37 -37 -37 -37 -37 -37 -37 -37 -37 -37 -37 -37 -37 -37 -37 -38 -38 -37
-32 -32 -32 -32 -32 -32 -32 -33 -33 -33 -33 -34 -34 -34 -34 -34 -35 -36 -37 -37 -37 -37 -37 -37 -37 -37 -37 -38 -37 -37 -37 -37 -37 -37 -37 -37 -37 -37 -37 -37 -37 -38 -38
-32 -32 -32 -32 -32 -33 -33 -33 -34 -34 -34 -34 -34 -34 -34 -35 -36 -37 -37 -37 -37 -38 -38 -38 -38 -38 -38 -38 -38 -38 -37 -37 -37 -37 -37 -37 -37 -37 -37 -37 -37 -37 -38
Height
5737 5733 5728 5721 5715 5710 5704 5698 5696 5688 5680 5673 5664 5656 5646 5638 5629 5620 5611 5602 5592 5582 5572 5562 5551 5541 5531 5520 5508 5495 5481 5469 5460 5456 5446 5440 5437 5433 5430 5427 5424 5420 5417
5725 5720 5716 5711 5707 5701 5695 5689 5683 5675 5667 5659 5650 5642 5633 5625 5614 5604 5594 5584 5573 5562 5553 5543 5533 5524 5512 5500 5488 5476 5464 5454 5446 5442 5436 5429 5425 5420 5418 5415 5411 5407 5403
5718 5713 5707 5702 5696 5689 5684 5678 5670 5661 5652 5644 5636 5628 5619 5609 5598 5587 5576 5566 5557 5547 5538 5529 5519 5507 5495 5482 5471 5459 5450 5442 5434 5428 5425 5418 5414 5409 5406 5402 5398 5393 5388
5707 5702 5695 5689 5683 5676 5670 5663 5656 5648 5640 5632 5623 5614 5603 5591 5580 5569 5558 5549 5540 5531 5522 5513 5502 5491 5478 5467 5455 5447 5439 5431 5424 5419 5413 5407 5402 5398 5394 5390 5386 5380 5376
5693 5688 5682 5676 5669 5663 5657 5650 5644 5636 5627 5618 5608 5597 5586 5575 5563 5553 5542 5531 5523 5513 5504 5493 5483 5472 5461 5451 5443 5436 5428 5421 5415 5410 5403 5397 5392 5388 5383 5380 5375 5371 5367
5680 5675 5670 5664 5657 5651 5645 5638 5630 5622 5612 5601 5590 5580 5570 5560 5549 5537 5526 5517 5509 5499 5489 5478 5467 5457 5448 5439 5433 5425 5418 5412 5407 5401 5395 5389 5384 5379 5375 5370 5366 5363 5360
5671 5666 5659 5652 5645 5639 5632 5624 5615 5606 5595 5585 5574 5565 5555 5545 5534 5523 5513 5503 5493 5483 5474 5464 5454 5445 5436 5429 5424 5416 5410 5402 5396 5391 5386 5380 5375 5370 5366 5362 5358 5355 5351
5659 5653 5646 5639 5633 5625 5618 5608 5598 5588 5578 5569 5559 5548 5539 5527 5517 5508 5498 5489 5480 5471 5462 5453 5445 5436 5427 5421 5414 5408 5401 5394 5387 5381 5376 5371 5366 5362 5357 5354 5351 5348 5342
5646 5640 5633 5626 5618 5609 5600 5591 5582 5573 5563 5554 5544 5533 5521 5512 5503 5493 5484 5476 5468 5459 5451 5443 5434 5426 5419 5413 5407 5400 5393 5386 5380 5374 5368 5362 5358 5353 5350 5347 5343 5340 5335
5633 5626 5619 5611 5604 5595 5588 5578 5569 5560 5550 5539 5529 5517 5506 5496 5488 5481 5473 5464 5455 5448 5440 5432 5424 5417 5410 5404 5399 5392 5386 5380 5373 5367 5360 5354 5349 5346 5342 5340 5337 5333 5329
5620 5613 5606 5598 5589 5581 5573 5563 5553 5543 5533 5524 5515 5504 5493 5484 5477 5470 5462 5453 5445 5437 5429 5422 5415 5407 5402 5397 5392 5386 5379 5373 5367 5361 5355 5349 5344 5340 5336 5333 5331 5327 5323
5607 5600 5592 5584 5575 5565 5557 5547 5537 5527 5519 5509 5501 5491 5482 5474 5467 5459 5451 5442 5434 5425 5418 5412 5405 5399 5395 5390 5385 5379 5373 5367 5361 5355 5350 5344 5339 5334 5331 5328 5325 5321 5318
5592 5584 5577 5568 5560 5551 5541 5531 5521 5509 5501 5494 5486 5479 5472 5464 5456 5448 5440 5432 5424 5415 5408 5402 5396 5392 5388 5383 5378 5373 5367 5361 5356 5351 5345 5340 5334 5330 5326 5322 5320 5316 5313
5578 5569 5561 5552 5544 5535 5525 5514 5504 5493 5485 5477 5470 5464 5458 5452 5444 5436 5429 5421 5413 5406 5399 5393 5388 5384 5380 5376 5371 5366 5361 5356 5352 5347 5342 5337 5331 5325 5321 5318 5314 5312 5309
5560 5553 5546 5537 5527 5516 5506 5496 5486 5478 5470 5463 5455 5448 5442 5437 5430 5424 5417 5409 5403 5397 5390 5385 5379 5376 5372 5368 5364 5359 5355 5351 5347 5342 5338 5334 5329 5323 5317 5313 5310 5308 5305
5545 5537 5527 5518 5508 5499 5489 5480 5468 5461 5455 5448 5441 5433 5428 5421 5415 5409 5403 5397 5391 5385 5381 5375 5370 5366 5364 5360 5356 5353 5349 5345 5341 5337 5333 5330 5326 5321 5314 5310 5306 5304 5302
5530 5520 5510 5500 5491 5481 5470 5461 5455 5449 5437 5433 5424 5417 5411 5407 5400 5394 5388 5382 5377 5372 5369 5364 5360 5357 5355 5352 5349 5346 5343 5339 5335 5332 5329 5325 5322 5318 5313 5307 5303 5300 5298
5513 5503 5492 5482 5471 5460 5451 5443 5436 5430 5427 5422 5411 5399 5393 5386 5379 5376 5371 5365 5363 5358 5356 5352 5350 5347 5345 5344 5341 5339 5336 5333 5329 5326 5323 5320 5317 5314 5310 5305 5300 5297 5294
5493 5483 5472 5462 5452 5443 5435 5427 5420 5413 5406 5402 5398 5391 5379 5367 5360 5356 5352 5347 5345 5344 5341 5339 5338 5336 5334 5334 5332 5331 5328 5326 5323 5320 5318 5316 5313 5309 5307 5303 5298 5294 5291
5472 5461 5451 5441 5432 5424 5417 5409 5402 5395 5387 5381 5375 5369 5360 5348 5343 5338 5333 5330 5329 5328 5326 5325 5325 5324 5323 5323 5323 5323 5321 5318 5316 5314 5312 5310 5308 5305 5303 5300 5297 5293 5289
5453 5443 5433 5424 5415 5408 5400 5391 5382 5374 5365 5357 5350 5344 5337 5327 5325 5322 5318 5316 5314 5313 5313 5312 5312 5312 5312 5312 5313 5314 5313 5312 5310 5307 5305 5304 5303 5301 5299 5297 5295 5292 5288
5433 5424 5416 5407 5398 5390 5380 5371 5362 5352 5343 5335 5330 5324 5317 5310 5307 5305 5303 5302 5301 5301 5300 5300 5300 5300 5301 5302 5303 5304 5305 5305 5303 5301 5300 5298 5296 5295 5294 5293 5292 5290 5287
5415 5406 5397 5387 5378 5369 5360 5349 5339 5331 5324 5317 5311 5307 5302 5297 5293 5291 5289 5288 5288 5288 5287 5288 5288 5289 5290 5291 5293 5295 5296 5297 5295 5295 5294 5292 5291 5289 5288 5288 5287 5287 5285
5397 5387 5377 5368 5358 5348 5338 5329 5321 5313 5306 5301 5296 5291 5287 5283 5280 5277 5276 5275 5276 5276 5275 5276 5277 5279 5280 5281 5283 5284 5286 5287 5287 5287 5287 5286 5285 5284 5282 5282 5282 5282 5282
5378 5367 5356 5347 5336 5327 5319 5310 5302 5295 5290 5285 5281 5276 5272 5269 5266 5265 5265 5265 5265 5265 5265 5266 5267 5269 5270 5271 5272 5274 5275 5277 5277 5278 5279 5279 5278 5277 5276 5275 5275 5276 5276
5358 5347 5335 5325 5316 5307 5299 5292 5285 5279 5273 5268 5264 5260 5256 5253 5252 5252 5252 5252 5253 5254 5255 5255 5256 5257 5259 5260 5261 5262 5264 5266 5268 5268 5269 5270 5270 5269 5268 5268 5268 5268 5269
Wind_Speed
42 42 44 45 48 52 55 56 52 59 57 56 59 62 62 62 66 67 70 74 83 85 87 90 90 81 79 74 71 68 67 65 57 44 37 35 34 36 38 40 41 41 43
42 44 45 45 49 54 57 55 52 52 56 59 61 61 61 65 70 72 74 81 85 84 84 81 72 75 78 71 66 65 64 58 51 41 37 36 36 38 37 39 41 43 44
42 44 47 47 51 57 53 49 51 55 59 62 62 63 65 70 74 76 82 85 82 84 76 75 76 76 68 63 64 63 56 51 47 41 38 37 36 37 37 40 40 41 41
42 48 47 52 54 52 51 54 56 58 60 62 65 68 71 71 73 79 84 82 84 78 75 78 76 65 60 62 61 56 49 45 42 40 38 36 36 37 38 38 38 39 36
46 47 49 51 52 54 55 56 56 60 62 65 69 73 77 75 76 81 81 78 79 75 78 72 64 60 60 59 54 48 45 41 39 38 35 35 37 38 37 36 35 31 29
46 48 51 52 54 55 55 56 58 61 66 68 72 75 81 77 77 78 76 74 76 75 64 60 59 58 58 52 47 42 40 39 36 34 33 34 34 34 33 32 30 26 26
50 50 51 52 53 53 56 58 63 65 67 69 71 78 79 85 84 75 72 73 67 61 56 55 56 55 50 45 41 38 39 37 35 32 32 34 31 30 30 27 26 26 28
48 49 50 50 53 56 59 64 68 61 71 74 76 78 83 79 72 73 69 61 53 52 53 53 54 51 45 40 37 37 38 36 35 34 34 33 30 28 27 23 22 24 28
49 48 49 52 56 61 66 70 64 68 72 79 76 79 74 71 74 62 52 51 52 49 49 49 49 46 40 38 36 37 37 35 34 33 34 33 29 27 24 21 22 23 28
49 51 53 54 62 59 61 69 68 70 76 77 78 77 71 72 57 53 51 50 52 50 48 46 45 42 37 36 35 35 33 32 32 34 34 32 29 26 25 20 20 23 26
50 52 57 59 64 62 63 66 69 70 71 74 71 70 65 54 52 53 52 51 52 51 49 45 43 38 35 34 32 33 32 31 32 32 30 27 26 24 23 20 20 22 25
54 58 59 61 61 61 63 66 67 69 70 65 67 61 54 55 55 53 51 53 52 49 48 44 42 36 33 32 30 30 29 30 30 30 29 26 24 23 23 20 19 22 23
58 59 59 58 59 62 64 67 71 69 63 61 54 53 53 53 54 53 53 54 53 47 45 43 39 34 31 29 27 28 28 28 28 28 27 28 26 23 21 21 19 21 23
60 59 59 60 62 66 71 72 70 66 62 57 53 53 53 54 54 55 56 56 53 47 43 41 38 33 30 28 27 28 27 27 27 26 25 25 27 24 21 19 20 19 21
61 60 62 65 69 72 73 71 67 61 58 55 54 57 57 54 55 57 58 57 54 48 42 39 38 34 28 28 27 27 27 26 26 26 25 25 24 25 21 18 18 18 18
62 65 68 71 74 73 71 68 64 60 57 55 57 59 57 58 59 60 61 59 54 48 41 37 37 34 30 28 27 26 26 25 24 24 25 25 24 24 23 20 17 17 16
66 70 73 75 75 73 70 66 62 57 59 59 60 61 62 61 63 64 63 59 53 46 40 38 36 34 31 27 26 25 25 25 25 24 24 24 23 22 22 21 18 16 16
72 74 76 75 73 71 67 63 61 59 58 58 61 65 66 68 69 68 63 59 51 43 40 37 35 34 31 27 25 25 24 24 25 24 23 21 21 20 21 22 20 16 15
76 78 78 77 73 68 64 62 62 62 62 61 62 63 69 71 71 68 60 55 48 41 39 36 34 33 30 26 26 25 24 24 24 24 23 21 21 19 19 20 22 18 15
80 80 77 74 68 65 63 63 63 64 67 69 70 71 69 69 64 60 52 48 43 38 35 34 34 33 31 29 27 25 24 24 25 24 24 23 21 19 18 17 19 19 15
80 77 73 66 63 63 65 67 70 72 74 75 71 67 60 58 55 48 44 41 38 35 34 33 33 33 32 31 29 26 23 24 25 25 23 24 24 20 17 15 15 16 17
74 68 65 67 68 68 69 72 74 74 69 64 61 55 49 49 45 42 44 38 33 33 34 32 32 32 32 32 29 26 24 23 24 23 20 20 21 22 18 15 13 12 13
64 66 67 67 69 72 74 74 69 65 62 56 49 45 44 43 39 42 39 35 34 35 36 32 31 30 29 32 32 28 25 25 25 23 22 21 19 18 18 16 15 12 10
70 72 71 73 75 75 70 66 64 59 54 49 48 46 44 42 40 39 36 40 40 42 33 29 29 27 30 32 29 30 29 28 27 25 22 21 21 19 19 19 17 17 14
75 75 78 77 72 67 66 63 58 53 50 48 47 45 43 41 37 37 39 43 47 35 28 27 27 29 32 34 32 31 31 30 27 28 26 26 25 24 22 21 20 20 19
78 78 74 69 68 65 60 56 53 51 50 49 47 45 43 40 37 35 41 36 34 33 26 21 21 27 33 34 33 31 32 30 32 31 29 28 28 24 22 21 20 21 21
Wind_Direction
306 301 299 304 306 306 305 304 293 299 305 304 304 304 304 303 305 307 307 307 311 312 309 308 307 303 302 311 313 309 302 301 301 299 294 291 289 287 285 283 283 283 282
304 305 305 303 302 301 301 306 307 305 303 304 302 303 305 305 305 303 305 310 311 312 312 312 301 306 319 317 308 301 299 300 300 299 295 296 294 291 288 288 288 288 286
296 300 298 301 298 300 304 305 303 302 302 303 304 304 302 302 303 306 307 311 312 312 309 304 302 316 317 307 302 298 299 299 298 300 297 297 295 291 292 293 293 293 290
288 291 291 294 299 301 303 304 306 305 304 304 304 302 302 302 303 305 309 310 313 311 307 308 316 317 308 301 300 300 300 299 299 300 301 301 299 298 297 297 298 295 291
295 294 296 299 303 304 305 306 306 303 302 302 303 304 304 303 305 305 307 310 310 308 310 318 316 311 305 303 302 303 301 301 302 301 302 303 303 301 299 299 297 293 288
294 297 302 302 303 304 304 303 302 303 304 302 303 308 306 304 301 302 305 308 304 313 322 316 310 307 306 306 306 304 303 303 302 301 303 302 301 297 297 298 294 292 293
299 302 302 302 300 300 303 304 305 304 304 307 307 306 306 306 305 308 303 305 318 321 315 310 310 308 307 307 304 307 308 309 308 305 307 306 304 301 301 294 291 294 297
300 300 299 300 302 303 306 306 307 302 307 308 305 305 305 308 307 302 312 322 322 319 314 312 311 310 307 306 306 309 312 312 311 312 313 312 307 304 303 294 291 299 304
299 300 302 303 306 311 311 310 310 309 301 305 304 304 307 303 301 317 322 326 327 320 315 312 312 310 308 306 310 310 312 314 314 314 314 313 310 309 305 293 297 307 312
304 305 306 311 304 310 306 303 305 300 298 299 301 305 300 306 321 319 321 324 323 318 314 312 312 311 309 309 310 313 315 317 318 319 319 316 315 312 308 297 305 312 315
304 305 307 307 307 306 303 303 303 303 302 301 304 297 309 320 321 319 321 321 320 316 313 313 312 311 309 308 310 314 317 320 321 320 321 318 311 311 313 301 306 315 319
306 307 306 305 304 305 304 303 304 304 304 305 300 308 315 319 317 315 318 320 320 316 313 312 312 310 305 305 311 314 318 323 323 327 330 326 319 311 316 301 302 314 320
306 306 304 304 305 305 305 305 305 307 304 302 305 307 314 315 313 313 317 319 320 316 312 310 310 307 302 302 309 314 319 323 324 328 333 334 327 318 309 310 301 309 319
306 305 306 307 307 306 307 309 307 305 305 303 303 308 312 312 310 312 316 317 318 316 309 307 306 304 300 301 309 313 315 317 319 322 328 335 336 325 315 307 303 302 318
307 305 305 305 308 311 311 307 305 303 303 303 303 308 309 309 308 310 313 314 316 313 309 304 302 300 297 300 307 311 310 311 313 316 320 326 335 337 324 307 304 300 314
303 305 307 309 310 310 307 305 304 303 304 304 304 305 306 306 306 308 310 312 312 309 308 298 297 295 293 296 302 306 307 308 310 312 313 317 324 336 340 327 305 300 302
304 305 307 309 310 308 306 304 303 303 304 304 304 303 303 303 304 305 307 308 307 304 302 294 293 290 288 290 296 302 304 308 309 310 309 312 315 323 340 339 319 301 295
305 307 309 310 308 306 305 304 303 303 301 301 302 302 302 302 302 303 304 302 302 298 295 291 286 285 283 283 291 298 300 304 307 306 307 310 309 315 327 342 338 312 296
307 309 310 308 306 305 304 303 302 302 302 302 300 298 299 299 299 300 299 297 296 292 287 285 281 280 279 275 282 293 298 303 306 302 298 306 310 308 314 331 343 332 303
310 310 308 307 307 306 305 303 302 302 301 301 300 300 298 295 295 296 295 292 290 286 278 279 277 275 275 266 271 279 291 301 304 303 296 296 305 306 302 315 331 342 326
309 307 308 308 306 305 304 303 303 303 302 302 302 300 298 295 294 292 289 288 285 278 274 273 271 270 271 264 265 270 281 293 297 300 295 290 292 299 298 297 317 334 342
308 309 308 306 306 305 305 305 304 304 304 303 302 300 297 294 294 289 291 285 274 283 277 270 268 266 264 260 260 264 271 280 290 292 297 296 298 293 293 287 290 319 336
310 312 311 309 308 308 307 306 306 306 304 304 302 301 298 294 288 286 283 281 284 287 283 272 267 262 257 255 256 258 261 267 276 285 289 294 302 299 287 285 273 277 313
311 312 311 310 309 308 308 307 307 305 304 302 301 301 298 293 286 282 272 277 282 288 278 270 264 251 250 254 256 255 258 260 265 274 279 286 293 303 295 286 275 262 268
312 312 312 311 310 309 308 307 306 303 301 300 299 298 295 289 282 272 267 267 275 274 273 265 260 246 249 257 259 258 257 257 257 261 271 278 283 291 290 288 276 265 253
315 314 313 312 312 311 309 308 306 304 302 301 299 298 293 285 275 264 257 262 267 269 261 260 259 259 255 257 263 261 257 262 257 262 261 267 278 283 283 284 277 266 254